• In Hungary
  • List of Countries
  • For 7 days
  • Water Temperature
  • Satellite Maps
  • Weather Map
  • News
  • Weather Widgets
  • user-avatar
    Login

    Hourly Weather Kordestan

    Today, 22 July, Sunday

    Time Temperature Precipitation Wind Pressure Humidity
    00:00 +24°C° 0 mm 1 mps 604 mmHg 20%
    01:00 +24°C° 0 mm 1 mps 603 mmHg 23%
    02:00 +23°C° 0 mm 1 mps 603 mmHg 27%
    03:00 +22°C° 0 mm 1 mps 602 mmHg 37%
    04:00 +22°C° 0 mm 1 mps 603 mmHg 41%
    05:00 +22°C° 0 mm 1 mps 603 mmHg 44%
    06:00 +21°C° 0 mm 2 mps 603 mmHg 48%
    07:00 +24°C° 0 mm 2 mps 604 mmHg 44%
    08:00 +26°C° 0 mm 2 mps 604 mmHg 39%
    09:00 +28°C° 0 mm 3 mps 605 mmHg 34%
    10:00 +29°C° 0 mm 3 mps 605 mmHg 28%
    11:00 +31°C° 0 mm 3 mps 605 mmHg 22%
    12:00 +34°C° 0 mm 4 mps 606 mmHg 16%
    13:00 +35°C° 0 mm 4 mps 606 mmHg 13%
    14:00 +36°C° 0 mm 5 mps 606 mmHg 11%
    15:00 +38°C° 0 mm 8 mps 605 mmHg 8%
    16:00 +36°C° 0 mm 7 mps 605 mmHg 9%
    17:00 +35°C° 0 mm 6 mps 605 mmHg 10%
    18:00 +34°C° 0 mm 6 mps 605 mmHg 11%
    19:00 +32°C° 0 mm 5 mps 605 mmHg 13%
    20:00 +29°C° 0 mm 4 mps 604 mmHg 15%
    21:00 +27°C° 0 mm 3 mps 604 mmHg 18%
    22:00 +26°C° 0 mm 2 mps 604 mmHg 20%
    23:00 +25°C° 0 mm 2 mps 603 mmHg 23%

    Tomorrow, 23 July, Monday

    Time Temperature Precipitation Wind Pressure Humidity
    00:00 +23°C° 0 mm 2 mps 603 mmHg 26%
    01:00 +23°C° 0 mm 2 mps 603 mmHg 30%
    02:00 +22°C° 0 mm 1 mps 602 mmHg 33%
    03:00 +21°C° 0 mm 1 mps 602 mmHg 36%
    04:00 +21°C° 0 mm 1 mps 602 mmHg 39%
    05:00 +22°C° 0 mm 1 mps 603 mmHg 41%
    06:00 +22°C° 0 mm 1 mps 603 mmHg 43%
    07:00 +23°C° 0 mm 1 mps 603 mmHg 39%
    08:00 +25°C° 0 mm 1 mps 604 mmHg 36%
    09:00 +26°C° 0 mm 2 mps 604 mmHg 32%
    10:00 +28°C° 0 mm 2 mps 604 mmHg 28%
    11:00 +30°C° 0 mm 2 mps 605 mmHg 24%
    12:00 +31°C° 0 mm 3 mps 605 mmHg 20%
    13:00 +33°C° 0 mm 4 mps 605 mmHg 17%
    14:00 +34°C° 0 mm 4 mps 605 mmHg 14%
    15:00 +35°C° 0 mm 5 mps 605 mmHg 11%
    16:00 +35°C° 0 mm 5 mps 605 mmHg 12%
    17:00 +34°C° 0 mm 5 mps 604 mmHg 12%
    18:00 +33°C° 0 mm 5 mps 604 mmHg 12%
    19:00 +32°C° 0 mm 5 mps 604 mmHg 15%
    20:00 +29°C° 0 mm 4 mps 604 mmHg 17%
    21:00 +27°C° 0 mm 4 mps 604 mmHg 19%
    22:00 +26°C° 0 mm 3 mps 604 mmHg 21%
    23:00 +26°C° 0 mm 3 mps 604 mmHg 22%

    Day after tomorrow, 24 July, Tuesday

    Time Temperature Precipitation Wind Pressure Humidity
    00:00 +25°C° 0 mm 2 mps 604 mmHg 23%
    01:00 +25°C° 0 mm 2 mps 604 mmHg 26%
    02:00 +24°C° 0 mm 1 mps 603 mmHg 28%
    03:00 +23°C° 0 mm 1 mps 603 mmHg 31%
    04:00 +23°C° 0 mm 1 mps 603 mmHg 33%
    05:00 +24°C° 0 mm 1 mps 603 mmHg 35%
    06:00 +24°C° 0 mm 1 mps 604 mmHg 36%
    07:00 +25°C° 0 mm 1 mps 604 mmHg 34%
    08:00 +27°C° 0 mm 2 mps 605 mmHg 32%
    09:00 +28°C° 0 mm 2 mps 605 mmHg 30%
    10:00 +29°C° 0 mm 2 mps 606 mmHg 27%
    11:00 +31°C° 0 mm 2 mps 606 mmHg 23%
    12:00 +33°C° 0 mm 3 mps 606 mmHg 19%
    13:00 +34°C° 0 mm 2 mps 606 mmHg 17%
    14:00 +35°C° 0 mm 2 mps 606 mmHg 16%
    15:00 +36°C° 0 mm 2 mps 606 mmHg 14%
    16:00 +35°C° 0 mm 2 mps 606 mmHg 14%
    17:00 +35°C° 0 mm 2 mps 606 mmHg 13%
    18:00 +35°C° 0 mm 2 mps 606 mmHg 13%
    19:00 +34°C° 0 mm 2 mps 606 mmHg 15%
    20:00 +31°C° 0 mm 2 mps 606 mmHg 17%
    21:00 +29°C° 0 mm 3 mps 606 mmHg 19%
    22:00 +28°C° 0 mm 2 mps 606 mmHg 23%
    23:00 +27°C° 0 mm 2 mps 605 mmHg 27%

    25 July, Wednesday

    Time Temperature Precipitation Wind Pressure Humidity
    00:00 +26°C° 0 mm 2 mps 605 mmHg 31%
    01:00 +25°C° 0 mm 2 mps 605 mmHg 35%
    02:00 +25°C° 0 mm 2 mps 605 mmHg 38%
    03:00 +24°C° 0 mm 2 mps 605 mmHg 42%
    04:00 +24°C° 0 mm 2 mps 605 mmHg 44%
    05:00 +24°C° 0 mm 2 mps 605 mmHg 46%
    06:00 +24°C° 0 mm 2 mps 605 mmHg 48%
    07:00 +26°C° 0 mm 2 mps 606 mmHg 41%
    08:00 +28°C° 0 mm 3 mps 607 mmHg 33%
    09:00 +32°C° 0 mm 4 mps 608 mmHg 26%
    10:00 +33°C° 0 mm 4 mps 608 mmHg 22%
    11:00 +35°C° 0 mm 4 mps 608 mmHg 19%
    12:00 +36°C° 0 mm 4 mps 608 mmHg 16%
    13:00 +37°C° 0 mm 3 mps 608 mmHg 14%
    14:00 +37°C° 0 mm 3 mps 608 mmHg 13%
    15:00 +38°C° 0 mm 3 mps 607 mmHg 12%
    16:00 +37°C° 0 mm 3 mps 607 mmHg 13%
    17:00 +36°C° 0 mm 3 mps 607 mmHg 14%
    18:00 +36°C° 0 mm 3 mps 607 mmHg 15%
    19:00 +34°C° 0 mm 3 mps 607 mmHg 17%
    20:00 +32°C° 0 mm 2 mps 607 mmHg 20%
    21:00 +30°C° 0 mm 2 mps 606 mmHg 22%
    22:00 +29°C° 0 mm 2 mps 606 mmHg 23%
    23:00 +29°C° 0 mm 2 mps 606 mmHg 25%

    26 July, Thursday

    Time Temperature Precipitation Wind Pressure Humidity
    00:00 +28°C° 0 mm 2 mps 606 mmHg 26%
    01:00 +27°C° 0 mm 2 mps 605 mmHg 28%
    02:00 +26°C° 0 mm 2 mps 605 mmHg 29%
    03:00 +26°C° 0 mm 2 mps 605 mmHg 31%
    04:00 +26°C° 0 mm 2 mps 605 mmHg 31%
    05:00 +26°C° 0 mm 2 mps 605 mmHg 32%
    06:00 +26°C° 0 mm 2 mps 606 mmHg 32%
    07:00 +28°C° 0 mm 3 mps 606 mmHg 28%
    08:00 +30°C° 0 mm 3 mps 607 mmHg 23%
    09:00 +33°C° 0 mm 4 mps 608 mmHg 18%
    10:00 +34°C° 0 mm 4 mps 608 mmHg 17%
    11:00 +35°C° 0 mm 4 mps 608 mmHg 16%
    12:00 +36°C° 0 mm 4 mps 608 mmHg 15%
    13:00 +37°C° 0 mm 3 mps 608 mmHg 14%
    14:00 +37°C° 0 mm 3 mps 607 mmHg 14%
    15:00 +37°C° 0 mm 2 mps 607 mmHg 14%
    16:00 +37°C° 0 mm 2 mps 607 mmHg 14%
    17:00 +36°C° 0 mm 2 mps 607 mmHg 15%
    18:00 +35°C° 0 mm 1 mps 607 mmHg 15%
    19:00 +35°C° 0 mm 2 mps 607 mmHg 17%
    20:00 +32°C° 0 mm 2 mps 607 mmHg 18%
    21:00 +31°C° 0 mm 2 mps 607 mmHg 20%
    22:00 +30°C° 0 mm 2 mps 606 mmHg 23%
    23:00 +29°C° 0 mm 2 mps 606 mmHg 25%

    27 July, Friday

    Time Temperature Precipitation Wind Pressure Humidity
    00:00 +28°C° 0 mm 2 mps 606 mmHg 28%
    01:00 +27°C° 0 mm 2 mps 606 mmHg 31%
    02:00 +26°C° 0 mm 2 mps 605 mmHg 33%
    03:00 +25°C° 0 mm 2 mps 605 mmHg 36%
    04:00 +25°C° 0 mm 2 mps 605 mmHg 36%
    05:00 +26°C° 0 mm 2 mps 605 mmHg 37%
    06:00 +26°C° 0 mm 2 mps 606 mmHg 37%
    07:00 +28°C° 0 mm 2 mps 606 mmHg 31%
    08:00 +30°C° 0 mm 3 mps 607 mmHg 25%
    09:00 +33°C° 0 mm 4 mps 608 mmHg 19%
    10:00 +35°C° 0 mm 4 mps 608 mmHg 17%
    11:00 +36°C° 0 mm 4 mps 608 mmHg 16%
    12:00 +37°C° 0 mm 4 mps 608 mmHg 14%
    13:00 +38°C° 0 mm 4 mps 608 mmHg 13%
    14:00 +38°C° 0 mm 4 mps 607 mmHg 13%
    15:00 +38°C° 0 mm 3 mps 607 mmHg 12%
    16:00 +37°C° 0 mm 3 mps 607 mmHg 13%
    17:00 +37°C° 0 mm 3 mps 607 mmHg 14%
    18:00 +36°C° 0 mm 3 mps 606 mmHg 15%
    19:00 +34°C° 0 mm 4 mps 606 mmHg 17%
    20:00 +33°C° 0 mm 4 mps 606 mmHg 20%
    21:00 +32°C° 0 mm 4 mps 606 mmHg 22%
    22:00 +29°C° 0 mm 4 mps 606 mmHg 24%
    23:00 +28°C° 0 mm 3 mps 606 mmHg 25%
    Show more